User: anonymous   Login
Location: Moena
(46.3667°N, 11.6500°E)
Time: 14:36:17
(UTC+00:00)
Language:

GP-B - Orbit

View from above orbital plane
View from above orbital plane
View from above satellite
View from above satellite

Ground track
Ground track

The orbit data is extracted from the following two-line orbital elements,

1 28230U 04014A   21135.88387116  .00000136  00000-0  16276-4 0  9994
2 28230  89.8138  90.9520 0003371  91.6387 268.5222 14.78807552377390
Epoch (UTC): 15 May 2021 21:12:46
Eccentricity: 0.0003371
inclination: 89.8138°
perigee height: 631 km
apogee height: 635 km
right ascension of ascending node: 90.9520°
argument of perigee: 91.6387°
revolutions per day: 14.78807552
mean anomaly at epoch: 268.5222°
orbit number at epoch: 37739

The dashed part of the orbit path shows where the satellite is in the earth's shadow,  

DLR